Regional Weather Roundup
Issued by NWS Newport/Morehead, NC

Current Version | Previous Version | Graphics & Text | Print | Product List | Glossary Off
Versions: 1 2 3 4 5 6 7 8 9 10 11 12 13 14 15 16 17 18 19 20 21 22 23 24 25 26 27 28 29 30 31 32 33 34 35 36 37 38 39 40 41 42 43 44 45 46 47 48 49 50

000
ASUS42 KMHX 280013
RWRMHX
WEATHER ROUNDUP FOR EASTERN NORTH CAROLINA
NATIONAL WEATHER SERVICE NEWPORT/MOREHEAD CITY NC
800 PM EDT WED JUL 27 2016

NOTE: "FAIR" INDICATES FEW OR NO CLOUDS BELOW 12,000 FEET
WITH NO SIGNIFICANT WEATHER AND/OR OBSTRUCTIONS TO VISIBILITY

NCZ015>017-031-032-045>047-102-103-280100-
NORTH COAST

CITY           SKY/WX    TMP DP  RH WIND       PRES   REMARKS
EDENTON        CLOUDY    90  76  65 CALM      29.94R HX 101
ELIZABETH CITY PTCLDY    88  79  74 E8        29.91R HX 103
KITTY HAWK     CLOUDY    88  78  70 SE5       29.90S HX 101
MANTEO           N/A     87  75  69 SW10      29.92R

$$

NCZ045>047-081-094-103-104-280100-
CENTRAL COAST

CITY           SKY/WX    TMP DP  RH WIND       PRES   REMARKS
FRISCO         CLOUDY    84  80  88 SW9       29.94R

$$

NCZ095-097-098-100-101-280100-
SOUTHERN COAST

CITY           SKY/WX    TMP DP  RH WIND       PRES   REMARKS
BEAUFORT       CLEAR     85  80  85 SW13G20   29.94R
CEDAR ISLAND   NOT AVBL
JACKSONVILLE   CLEAR     88  78  72 SW7       29.90S HX 101
PINEY ISLAND   NOT AVBL
WILMINGTON     CLEAR     87  76  69 SW9       29.94R


$$

NCZ011>013-027>030-043-044-078>080-089-090>093-098-280100-
COASTAL PLAIN

CITY           SKY/WX    TMP DP  RH WIND       PRES   REMARKS
AHOSKIE        PTCLDY    83  81  94 CALM      29.91F
CLINTON        CLEAR     92  75  57 SW5       29.93R HX 104
ELIZABETHTOWN  CLEAR     93  73  53 S3        29.93R HX 102
GOLDSBORO      CLOUDY    93  75  55 W6        29.89R HX 104
GREENVILLE     PTCLDY    88  79  74 CALM      29.92F HX 102
HAVELOCK       MOCLDY    87  76  69 S8        29.93R
KENANSVILLE    NOT AVBL
KINSTON        PTCLDY    90  75  62 S6        29.92R HX 100
NEW BERN       CLEAR     88  77  69 S6        29.92R HX 100
RICHLANDS      CLOUDY    90  75  61 SW7       29.91S HX 100
ROCKY MOUNT    CLOUDY    85  81  88 CALM      29.91S HX 100
WASHINGTON     CLOUDY    81  76  85 SE8       29.93R
WHITEVILLE     CLEAR     91  78  65 S5        29.93R HX 104

$$

AMZ130-135-150-152-154-156-158-170-250-252-270-ANZ085-086-088-633-658-670-280100-
MARINE OBSERVATIONS

STATION/POSITION TIME  TEMP    WIND        PRES    WAVE   SWELL
                       AIR SEA DIR/SP/G            HT/PER HT/PER
                 (UTC) (F)     (DEG/KT/KT) (MB)    (FT/S) (FT/S)
CHESAPEAKE LIGHT NOT AVBL
64 E VA BEACH    2350   83 84  180/  6/  6 1013.2    2/ 6   2/ 6
DUCK             2300   81 68                N/A
2 E DUCK         2311      76                N/A     1/ 8
OREGON INLET     2300   83 82                N/A
13E OREGON INLT  0000      85                N/A     2/ 6   2/ 6
HATTERAS CG      2300   85 84                N/A
DIAMOND BUOY     2350   85 85  250/ 12/ 14 1013.7    3/ 6   2/ 9
CAPE LOOKOUT     0000   85     230/  9/ 12 1013.8
BEAUFORT LAB     2300   86 83                N/A
30 SE NEW RVR IN 2308   86 85  230/ 17/ 23 1013.2
30 SE NEW RVR IN 2325      85                N/A     4/ 5
27 SE WRIGHTSVLE 2308   85 84  230/ 17/ 21 1013.9
5 SE WRIGHTSVLE  2308   84 81  230/ 14/ 19 1014.4
225 S CAPE HAT   2350   83 85  220/ 12/ 14 1016.2    4/ 6   3/ 6
41 SE CHARLESTON 2350   86 86  220/ 14/ 16 1014.5    3/ 4   2/ 8

$$



USA.gov is the U.S. government's official web portal to all federal, state and local government web resources and services.